Temp
2 2 2 2 2 2 2 2 1 1 1 1 1 1 1 1 1 1 1 1 0 0 0 0 0 1 0 0 0 -0 -0 0 0 1 1 1 1 1 1 1 1 1 1 1 1 1 1 1 1 1 1 1 1 1 1 1 1 1 1 1 1 1 2 2 2 2 2 2 2 2 2 2 2 2 2 2 2 2 2 2 2 2 2 2 2 2
1 1 1 2 2 2 2 1 1 1 1 1 1 1 1 1 1 1 1 0 0 0 0 0 0 0 0 0 -0 -0 0 1 1 1 1 1 1 1 1 1 1 1 1 1 1 1 1 1 1 1 1 1 1 1 1 1 1 1 1 1 1 1 1 1 1 1 1 1 1 2 2 2 1 1 1 1 2 2 2 2 2 2 2 2 2 2
1 1 1 1 1 1 1 1 1 1 1 1 1 1 1 1 1 1 0 0 0 0 0 0 0 0 -0 -0 0 0 1 1 1 1 1 1 1 1 1 1 1 1 1 1 1 1 1 1 1 1 1 1 1 1 1 1 1 1 1 1 1 1 1 1 1 1 1 1 1 1 1 1 1 1 1 1 1 1 2 2 2 2 2 2 2 2
1 1 1 1 1 1 1 1 1 0 0 0 0 0 1 0 0 0 0 0 0 0 0 0 -0 -0 -0 0 1 1 1 1 1 0 0 1 1 1 1 1 1 1 1 1 1 1 1 1 1 1 1 1 1 1 1 1 1 1 1 1 1 1 1 1 1 1 1 1 1 1 1 1 1 1 1 1 1 1 1 1 2 2 2 2 2 2
1 1 1 0 0 0 0 0 0 0 0 0 0 0 0 0 0 0 0 -0 -0 -0 -0 -0 -0 0 0 1 1 1 1 1 0 0 0 0 0 0 0 0 0 0 0 0 0 1 1 1 1 1 1 1 1 1 1 1 1 1 1 1 1 1 1 1 1 1 1 1 1 1 1 1 1 1 1 1 1 1 1 1 1 1 1 1 2 2
0 0 0 0 -0 -0 -0 -0 -0 -0 -0 -0 -0 -0 -0 -0 -0 -0 -0 -0 -0 -0 -0 -0 -0 0 1 1 1 1 0 0 0 0 0 0 0 0 0 0 -0 -0 0 0 0 0 0 1 1 1 1 1 1 1 1 1 1 1 1 1 1 1 1 1 1 1 1 1 1 1 1 1 1 1 1 1 1 1 1 1 1 1 1 1 1 1
0 0 0 0 -0 -0 -0 -0 -0 -0 -0 -0 -0 -0 -0 -0 -0 -0 -0 -0 -0 -0 -0 -0 0 0 1 1 1 0 0 0 0 0 0 -0 -0 -0 -0 -0 -0 -0 -0 -0 -0 0 0 0 1 1 1 1 1 1 1 1 1 1 1 1 1 1 1 1 1 1 1 1 1 1 1 1 1 1 1 1 1 1 1 1 1 1 1 1 1 1
-0 -0 -0 -0 -0 -0 -0 -0 -0 -0 -0 -0 -0 -0 -0 -0 -0 -0 -0 -0 -0 -0 -0 0 0 0 0 0 0 0 0 0 0 0 -0 -0 -0 -0 -0 -0 -0 -0 -1 -0 -0 0 0 0 1 1 1 1 1 1 1 1 1 0 0 0 0 0 0 0 0 0 0 0 0 1 1 1 1 0 0 0 0 0 0 0 1 1 1 1 1 1
-0 -0 -0 -0 -0 -0 -0 -0 -0 -0 -0 -0 -0 -0 -0 -0 -0 -0 -0 -0 -0 0 0 0 0 0 0 0 0 0 0 0 0 -0 -0 -0 -0 -0 -0 -0 -1 -1 -1 -1 -0 -0 -0 0 0 0 0 0 0 0 0 0 -0 -0 -0 -0 -0 -0 -0 -0 -0 -0 0 0 0 0 0 0 0 0 0 0 0 0 0 0 0 0 0 1 1 1
-0 -0 -0 -0 -0 -0 -0 -0 -0 -0 -0 -0 -0 -0 -0 -0 -0 0 0 0 0 0 0 0 0 0 0 0 0 0 0 0 -0 -0 -0 -0 -0 -1 -1 -1 -1 -1 -1 -1 -1 -1 -1 -1 -0 -0 -0 -0 -0 -0 -0 -1 -1 -1 -1 -1 -1 -1 -1 -0 -0 -0 -0 -0 0 0 0 0 0 0 0 0 0 0 0 0 0 0 0 0 1 1
-0 -0 -0 -0 -0 -0 -0 0 0 -0 -0 -0 -0 -0 -0 -0 0 0 0 0 0 1 1 1 0 0 0 -0 -0 -0 -0 -0 -0 -0 -0 -0 -1 -1 -1 -1 -1 -1 -1 -1 -1 -1 -1 -1 -1 -1 -1 -1 -1 -1 -1 -1 -1 -1 -1 -1 -1 -1 -1 -1 -1 -0 -0 -0 -0 0 0 0 0 0 0 0 0 0 0 0 0 0 0 0 0 0
-0 -0 -0 -0 -0 -0 -0 -0 -0 -0 -0 -0 -0 -0 -0 0 0 0 0 0 1 1 1 0 0 0 -0 -0 -0 -0 -0 -0 -0 -0 -0 -1 -1 -1 -1 -1 -1 -1 -1 -1 -1 -1 -1 -1 -1 -1 -1 -1 -1 -1 -1 -1 -1 -1 -1 -1 -1 -1 -1 -1 -1 -1 -0 -0 -0 -0 0 0 0 0 0 0 0 0 0 0 0 0 0 0 0 0
-0 -0 -0 -0 -0 -0 -0 -0 -0 -0 -0 -0 -0 -0 -0 0 0 0 0 0 1 1 0 0 -0 -0 -0 -0 -0 -1 -1 -1 -1 -1 -1 -1 -1 -1 -1 -1 -1 -1 -1 -1 -1 -1 -1 -1 -1 -1 -1 -1 -1 -1 -1 -1 -1 -1 -1 -1 -1 -1 -1 -1 -1 -1 -0 -0 -0 -0 0 0 0 0 0 0 0 0 0 0 0 0 0 0 0 0
-0 -0 -0 -0 -0 -0 0 0 0 0 0 1 1 1 1 1 1 1 0 0 0 0 0 -0 -0 -0 -1 -1 -1 -1 -1 -1 -1 -1 -2 -2 -2 -2 -2 -2 -2 -1 -1 -1 -1 -1 -1 -1 -1 -1 -1 -1 -1 -1 -1 -1 -1 -1 -1 -1 -1 -1 -1 -1 -1 -0 -0 -0 -0 -0 0 0 0 0 0 0 0 0 0 0 0 0 0 0 0 0
-0 -0 -0 -0 -0 0 1 1 1 1 1 1 1 1 1 1 1 1 0 0 0 -0 -0 -0 -1 -1 -1 -1 -1 -1 -1 -1 -2 -2 -2 -2 -2 -2 -2 -2 -2 -2 -1 -1 -1 -1 -1 -1 -1 -1 -1 -1 -1 -1 -1 -1 -1 -1 -1 -1 -1 -1 -1 -1 -1 -0 -0 -0 -0 -0 0 0 0 0 0 0 0 0 0 0 0 0 0 0 0 0
-0 -0 -0 -0 0 1 1 1 1 1 1 1 1 1 1 1 0 0 0 -0 -0 -1 -1 -1 -1 -1 -1 -1 -1 -1 -2 -2 -2 -2 -3 -3 -3 -3 -3 -3 -2 -2 -2 -1 -1 -1 -1 -1 -2 -2 -1 -1 -1 -1 -1 -1 -1 -2 -2 -1 -1 -1 -1 -1 -1 -1 -0 -0 -0 -0 0 0 0 0 0 0 0 0 0 0 0 0 0 0 0 0
0 0 0 0 0 1 1 1 1 1 1 1 1 1 0 0 0 0 -0 -0 -1 -1 -1 -1 -1 -1 -1 -1 -1 -2 -2 -2 -2 -3 -3 -3 -3 -3 -3 -3 -3 -2 -2 -2 -2 -2 -2 -2 -2 -2 -2 -2 -2 -1 -2 -2 -2 -2 -2 -1 -1 -1 -1 -1 -1 -1 -0 -0 -0 -0 -0 -0 -0 -0 -0 -0 -0 -0 -0 -0 -0 -0 0 0 0 0
0 0 0 0 1 1 1 1 1 1 0 0 0 0 0 -0 -0 -0 -1 -1 -1 -1 -1 -1 -2 -2 -2 -2 -2 -2 -2 -3 -3 -3 -3 -3 -3 -3 -3 -3 -3 -3 -2 -2 -2 -2 -2 -2 -2 -2 -2 -2 -2 -2 -2 -2 -2 -2 -2 -1 -1 -1 -1 -1 -1 -1 -1 -1 -0 -0 -0 -0 -0 -0 -0 -0 -0 -0 -0 -0 -0 -0 -0 -0 -0 0
0 0 0 0 0 0 0 0 0 0 0 -0 -0 -0 -0 -1 -1 -1 -1 -1 -1 -1 -2 -2 -2 -2 -2 -2 -2 -3 -3 -3 -3 -4 -4 -4 -4 -3 -3 -3 -3 -3 -3 -2 -2 -2 -2 -2 -2 -2 -2 -2 -2 -2 -2 -2 -2 -2 -2 -2 -1 -1 -1 -1 -1 -1 -1 -1 -1 -1 -1 -1 -1 -1 -1 -1 -1 -1 -0 -0 -0 -0 -0 -0 -0 -0
0 -0 -0 -0 -0 -0 -0 -0 -0 -0 -0 -1 -1 -1 -1 -1 -1 -1 -1 -2 -2 -2 -2 -2 -2 -3 -2 -3 -3 -3 -3 -3 -4 -4 -4 -4 -4 -4 -3 -3 -3 -3 -3 -3 -3 -3 -3 -3 -3 -3 -3 -3 -3 -2 -2 -2 -2 -2 -2 -2 -2 -1 -1 -1 -1 -1 -1 -1 -1 -1 -1 -1 -1 -1 -1 -1 -1 -1 -1 -1 -1 -1 -1 -0 -0 -0
-0 -1 -1 -1 -1 -1 -1 -1 -1 -1 -1 -1 -1 -1 -1 -2 -2 -2 -2 -2 -2 -2 -2 -3 -3 -3 -3 -3 -3 -3 -4 -4 -4 -4 -4 -4 -4 -4 -4 -3 -3 -3 -3 -3 -3 -3 -3 -3 -3 -3 -3 -3 -2 -2 -2 -2 -2 -2 -2 -2 -2 -2 -2 -1 -1 -1 -1 -1 -1 -1 -1 -1 -1 -1 -1 -1 -1 -1 -1 -1 -1 -1 -1 -1 -1 -1
-1 -1 -1 -1 -1 -1 -1 -1 -1 -1 -1 -1 -1 -2 -2 -2 -2 -2 -2 -2 -2 -2 -3 -3 -3 -3 -3 -4 -4 -4 -4 -4 -4 -4 -4 -4 -4 -4 -3 -3 -3 -3 -3 -3 -3 -3 -3 -3 -3 -3 -3 -2 -2 -2 -2 -2 -2 -2 -2 -2 -2 -2 -2 -2 -2 -2 -2 -2 -1 -1 -1 -1 -1 -1 -1 -1 -1 -1 -1 -1 -1 -1 -1 -1 -1 -1
-1 -1 -1 -1 -1 -1 -1 -2 -2 -2 -2 -2 -2 -2 -2 -2 -2 -2 -2 -2 -2 -3 -3 -3 -3 -3 -4 -4 -4 -4 -4 -4 -4 -5 -5 -5 -4 -4 -4 -4 -4 -4 -4 -3 -3 -3 -3 -3 -3 -3 -2 -2 -2 -2 -2 -2 -3 -3 -2 -2 -2 -2 -2 -2 -2 -2 -2 -2 -2 -2 -2 -2 -2 -2 -2 -2 -2 -2 -2 -2 -2 -1 -1 -1 -1 -1
-1 -2 -2 -2 -2 -2 -2 -2 -2 -2 -2 -2 -2 -2 -2 -2 -2 -2 -2 -3 -3 -3 -3 -3 -3 -4 -4 -4 -4 -4 -5 -4 -5 -5 -5 -4 -4 -4 -4 -4 -4 -4 -4 -4 -4 -4 -4 -3 -3 -3 -2 -2 -2 -2 -3 -3 -3 -3 -3 -2 -2 -2 -2 -2 -2 -2 -2 -2 -2 -2 -2 -2 -2 -2 -2 -2 -2 -2 -2 -2 -2 -2 -2 -1 -1 -1
-2 -2 -2 -2 -2 -2 -2 -2 -2 -2 -2 -2 -2 -2 -2 -2 -2 -3 -3 -3 -3 -3 -3 -3 -4 -4 -4 -4 -4 -5 -5 -5 -5 -5 -5 -4 -4 -4 -4 -4 -4 -4 -4 -4 -4 -4 -4 -4 -3 -3 -2 -2 -2 -3 -3 -3 -3 -3 -3 -3 -2 -2 -2 -2 -2 -2 -2 -2 -2 -2 -2 -2 -2 -2 -2 -2 -2 -2 -2 -2 -2 -2 -2 -2 -2 -2
-3 -3 -3 -3 -2 -2 -2 -2 -2 -2 -2 -2 -2 -2 -2 -2 -3 -3 -3 -3 -3 -3 -3 -3 -4 -4 -4 -4 -4 -4 -5 -5 -5 -5 -5 -4 -4 -4 -4 -4 -4 -4 -4 -4 -4 -4 -4 -4 -3 -3 -3 -3 -3 -3 -3 -3 -3 -3 -3 -3 -3 -3 -3 -3 -3 -3 -3 -3 -3 -3 -3 -3 -3 -3 -2 -2 -2 -2 -2 -2 -2 -2 -2 -2 -2 -2
-3 -3 -3 -3 -3 -3 -3 -3 -3 -3 -3 -3 -2 -2 -3 -3 -3 -3 -3 -3 -3 -3 -3 -4 -4 -4 -4 -4 -4 -4 -5 -5 -5 -5 -5 -5 -5 -5 -4 -4 -4 -4 -4 -5 -5 -5 -5 -4 -4 -3 -3 -3 -3 -3 -3 -3 -3 -3 -3 -3 -3 -3 -3 -3 -3 -3 -3 -3 -3 -3 -3 -3 -3 -3 -3 -3 -3 -3 -2 -2 -2 -2 -2 -2 -2 -2
-3 -3 -3 -3 -3 -3 -3 -3 -3 -3 -3 -3 -3 -3 -3 -3 -3 -3 -3 -3 -3 -4 -4 -4 -4 -4 -4 -4 -4 -4 -5 -5 -5 -5 -5 -5 -5 -5 -4 -4 -4 -5 -5 -5 -5 -5 -5 -4 -4 -3 -3 -3 -3 -3 -3 -3 -3 -3 -3 -3 -3 -3 -3 -3 -3 -3 -3 -3 -3 -3 -3 -3 -3 -3 -3 -3 -3 -3 -3 -3 -3 -2 -2 -2 -3 -3
-3 -3 -3 -3 -3 -4 -4 -4 -4 -4 -4 -4 -4 -3 -3 -3 -3 -3 -4 -4 -4 -4 -4 -4 -4 -4 -4 -4 -4 -4 -4 -4 -4 -4 -4 -5 -5 -5 -4 -5 -5 -5 -5 -5 -5 -5 -4 -4 -4 -3 -3 -3 -3 -3 -3 -3 -3 -3 -3 -3 -3 -3 -3 -3 -3 -3 -3 -3 -3 -3 -3 -3 -3 -3 -3 -3 -3 -3 -3 -3 -3 -3 -3 -3 -3 -3
-3 -3 -3 -3 -3 -4 -4 -4 -4 -4 -4 -4 -4 -4 -4 -4 -4 -4 -4 -4 -4 -4 -4 -4 -4 -4 -4 -4 -4 -4 -4 -4 -4 -4 -5 -5 -5 -5 -5 -5 -5 -5 -5 -6 -5 -5 -4 -4 -4 -4 -3 -3 -4 -4 -4 -4 -4 -4 -4 -4 -4 -4 -3 -3 -3 -4 -4 -4 -4 -4 -4 -4 -4 -4 -3 -3 -3 -3 -3 -3 -3 -3 -3 -3 -3 -3
-3 -3 -4 -4 -4 -4 -4 -4 -5 -5 -5 -5 -4 -4 -4 -4 -4 -4 -4 -4 -4 -4 -4 -4 -4 -4 -4 -4 -4 -4 -4 -4 -4 -5 -5 -5 -5 -5 -5 -5 -5 -5 -5 -6 -5 -5 -5 -5 -4 -4 -4 -4 -4 -4 -4 -4 -4 -4 -4 -4 -4 -4 -4 -4 -4 -4 -4 -4 -4 -4 -4 -4 -4 -4 -4 -4 -4 -4 -4 -3 -3 -3 -3 -4 -4 -4
-4 -4 -4 -4 -4 -4 -5 -5 -5 -5 -5 -5 -5 -4 -4 -4 -4 -4 -4 -4 -4 -4 -4 -4 -4 -4 -4 -4 -4 -4 -4 -4 -5 -5 -5 -5 -5 -5 -5 -5 -5 -5 -5 -6 -6 -6 -6 -5 -5 -5 -5 -5 -5 -5 -5 -5 -5 -5 -5 -5 -5 -5 -4 -5 -5 -4 -4 -4 -4 -4 -4 -4 -4 -4 -4 -4 -4 -4 -4 -4 -4 -4 -4 -4 -4 -4
-4 -4 -5 -5 -5 -5 -5 -5 -5 -5 -5 -5 -4 -4 -4 -4 -4 -4 -4 -4 -4 -4 -4 -4 -4 -4 -4 -4 -5 -5 -5 -5 -5 -5 -5 -5 -5 -5 -5 -5 -5 -6 -6 -6 -6 -6 -6 -6 -6 -5 -6 -5 -5 -5 -5 -5 -5 -5 -5 -5 -5 -5 -5 -5 -5 -5 -5 -5 -4 -4 -4 -4 -4 -4 -4 -4 -4 -4 -4 -4 -4 -4 -4 -4 -4 -4
-4 -5 -5 -5 -5 -5 -5 -5 -5 -5 -5 -4 -4 -4 -4 -4 -4 -4 -4 -4 -4 -4 -4 -4 -4 -4 -4 -5 -5 -5 -5 -5 -5 -5 -5 -5 -5 -5 -6 -6 -6 -6 -6 -6 -6 -6 -6 -6 -6 -6 -6 -6 -6 -5 -5 -5 -5 -5 -5 -5 -5 -5 -5 -5 -5 -5 -5 -5 -5 -4 -4 -4 -4 -4 -4 -4 -4 -4 -4 -4 -4 -4 -4 -4 -3 -3
-5 -5 -5 -5 -5 -5 -5 -5 -5 -5 -5 -4 -4 -4 -4 -4 -4 -4 -4 -4 -4 -4 -4 -4 -5 -5 -5 -5 -5 -5 -5 -5 -5 -5 -5 -5 -6 -6 -6 -6 -6 -6 -6 -6 -6 -6 -6 -6 -6 -6 -6 -6 -6 -6 -5 -5 -5 -5 -5 -5 -5 -5 -5 -5 -5 -5 -5 -5 -5 -4 -4 -4 -4 -4 -4 -4 -4 -4 -4 -4 -4 -4 -4 -4 -3 -3
-5 -5 -5 -5 -5 -5 -5 -5 -5 -5 -5 -5 -5 -5 -4 -4 -4 -4 -4 -5 -5 -5 -5 -5 -5 -5 -5 -5 -5 -5 -5 -5 -5 -5 -6 -6 -6 -6 -6 -6 -6 -6 -6 -6 -6 -6 -6 -6 -6 -6 -6 -6 -6 -5 -5 -5 -5 -5 -5 -5 -5 -5 -5 -5 -5 -5 -5 -5 -5 -5 -4 -4 -4 -4 -4 -4 -4 -4 -4 -4 -4 -4 -4 -4 -4 -4
-5 -5 -5 -5 -5 -5 -5 -5 -5 -5 -5 -5 -5 -5 -5 -5 -5 -5 -5 -5 -5 -5 -5 -5 -5 -5 -5 -5 -5 -5 -6 -6 -6 -6 -6 -6 -6 -6 -6 -6 -6 -7 -7 -7 -7 -6 -6 -6 -6 -6 -6 -6 -6 -5 -5 -5 -5 -5 -5 -5 -5 -5 -5 -5 -5 -5 -5 -5 -5 -5 -5 -4 -4 -4 -4 -4 -4 -4 -4 -4 -4 -4 -4 -4 -4 -4
-5 -5 -5 -5 -6 -6 -6 -6 -6 -6 -5 -5 -5 -5 -5 -5 -5 -5 -5 -5 -5 -5 -5 -5 -5 -5 -5 -6 -6 -6 -6 -6 -6 -6 -6 -6 -6 -6 -7 -7 -7 -7 -7 -7 -7 -7 -7 -6 -6 -6 -6 -6 -6 -6 -6 -6 -6 -6 -6 -6 -6 -5 -5 -5 -5 -5 -5 -5 -5 -5 -5 -5 -5 -4 -4 -4 -4 -4 -4 -4 -4 -4 -4 -4 -4 -4
-6 -6 -6 -6 -6 -6 -6 -6 -6 -6 -6 -6 -6 -6 -6 -6 -6 -6 -6 -6 -6 -6 -6 -6 -6 -6 -6 -6 -6 -6 -6 -6 -6 -6 -6 -6 -7 -7 -7 -7 -7 -7 -7 -7 -7 -7 -7 -6 -6 -6 -6 -6 -6 -6 -6 -6 -6 -6 -6 -6 -5 -5 -5 -5 -5 -5 -5 -5 -5 -5 -5 -5 -5 -4 -4 -4 -4 -4 -4 -4 -4 -4 -4 -4 -4 -4
-6 -6 -6 -6 -6 -6 -6 -6 -6 -6 -6 -6 -6 -6 -6 -6 -6 -6 -6 -6 -7 -7 -7 -7 -7 -7 -7 -7 -7 -7 -7 -7 -6 -6 -7 -7 -7 -7 -7 -7 -7 -7 -7 -7 -7 -7 -7 -7 -6 -6 -6 -6 -6 -6 -6 -6 -6 -6 -6 -5 -5 -5 -5 -5 -5 -5 -5 -5 -5 -5 -5 -5 -4 -4 -4 -4 -5 -5 -5 -5 -5 -5 -5 -5 -5 -5
-6 -6 -6 -6 -6 -6 -6 -6 -7 -6 -6 -6 -6 -6 -7 -7 -7 -7 -7 -7 -7 -7 -7 -7 -7 -7 -7 -7 -7 -7 -7 -7 -7 -7 -7 -7 -7 -7 -7 -7 -7 -7 -7 -7 -7 -7 -7 -7 -7 -6 -6 -6 -6 -6 -6 -6 -6 -6 -5 -5 -5 -5 -5 -5 -5 -5 -5 -5 -5 -5 -5 -5 -5 -5 -5 -5 -5 -5 -5 -5 -5 -5 -5 -5 -5 -5
-7 -7 -6 -6 -6 -6 -6 -7 -7 -7 -6 -7 -7 -7 -7 -7 -7 -7 -7 -7 -7 -7 -7 -7 -7 -7 -7 -7 -7 -7 -7 -7 -7 -7 -7 -7 -7 -7 -7 -6 -6 -7 -7 -7 -7 -7 -7 -7 -7 -6 -6 -6 -6 -6 -6 -6 -6 -6 -6 -5 -5 -5 -5 -5 -5 -5 -5 -5 -5 -5 -5 -5 -5 -5 -5 -5 -5 -5 -5 -5 -5 -5 -5 -5 -5 -5
-7 -7 -7 -7 -7 -7 -7 -7 -7 -7 -7 -7 -7 -7 -7 -7 -7 -7 -7 -7 -7 -7 -7 -7 -7 -7 -7 -7 -7 -7 -7 -7 -7 -7 -7 -7 -7 -6 -6 -6 -6 -6 -6 -7 -7 -7 -7 -7 -7 -6 -6 -6 -6 -6 -6 -6 -6 -6 -6 -6 -5 -5 -5 -5 -5 -5 -5 -5 -5 -5 -5 -5 -5 -5 -5 -5 -5 -5 -5 -5 -5 -5 -5 -5 -5 -5
-7 -7 -7 -7 -7 -7 -7 -7 -7 -7 -7 -7 -7 -7 -7 -7 -7 -7 -7 -7 -7 -7 -7 -7 -7 -7 -7 -7 -7 -7 -7 -7 -7 -7 -7 -7 -6 -6 -6 -6 -6 -6 -6 -6 -7 -7 -7 -7 -6 -6 -6 -6 -6 -6 -6 -6 -6 -6 -6 -6 -5 -5 -5 -5 -5 -5 -5 -5 -5 -5 -5 -5 -5 -5 -5 -5 -5 -5 -5 -5 -5 -5 -5 -5 -5 -5
-7 -7 -7 -7 -7 -7 -7 -7 -7 -7 -7 -7 -7 -7 -7 -7 -7 -7 -7 -7 -7 -7 -7 -7 -7 -7 -7 -7 -7 -7 -7 -7 -7 -7 -7 -7 -7 -6 -6 -6 -6 -6 -6 -6 -6 -6 -7 -7 -6 -6 -6 -6 -6 -6 -6 -6 -6 -6 -5 -5 -5 -5 -5 -5 -5 -5 -5 -5 -5 -5 -5 -5 -5 -5 -5 -5 -5 -5 -5 -5 -5 -5 -5 -5 -5 -5
-7 -7 -7 -7 -7 -7 -7 -7 -7 -7 -7 -7 -7 -7 -7 -7 -7 -7 -7 -7 -7 -7 -7 -7 -7 -7 -7 -7 -6 -6 -6 -6 -7 -7 -7 -7 -6 -6 -6 -6 -6 -6 -6 -6 -6 -6 -6 -6 -6 -6 -6 -6 -6 -6 -6 -6 -6 -6 -6 -5 -5 -5 -5 -5 -5 -5 -5 -5 -5 -5 -5 -5 -5 -5 -5 -5 -5 -5 -5 -5 -4 -4 -4 -4 -4 -4
-7 -7 -7 -7 -7 -7 -7 -7 -7 -7 -7 -7 -7 -7 -7 -7 -7 -7 -7 -7 -7 -7 -7 -7 -7 -7 -7 -6 -6 -6 -6 -6 -6 -6 -6 -6 -6 -6 -6 -6 -6 -6 -6 -6 -6 -6 -6 -6 -6 -6 -6 -6 -6 -6 -6 -6 -6 -6 -6 -5 -5 -5 -5 -5 -5 -5 -5 -5 -5 -5 -5 -5 -5 -5 -5 -5 -5 -4 -4 -4 -4 -4 -4 -4 -4 -4
-7 -7 -7 -7 -7 -7 -7 -7 -7 -7 -7 -7 -7 -7 -7 -7 -7 -7 -7 -7 -7 -7 -7 -7 -7 -7 -7 -7 -7 -7 -6 -6 -6 -6 -6 -6 -6 -6 -6 -6 -6 -6 -6 -6 -6 -6 -6 -6 -6 -6 -6 -6 -6 -6 -6 -6 -6 -6 -6 -6 -5 -5 -5 -5 -5 -5 -5 -5 -5 -5 -5 -5 -5 -5 -5 -5 -4 -4 -4 -4 -4 -4 -4 -4 -4 -4
-7 -7 -7 -7 -7 -7 -7 -7 -7 -7 -7 -7 -7 -7 -7 -7 -7 -7 -7 -7 -7 -7 -7 -7 -7 -7 -7 -7 -7 -7 -6 -6 -6 -6 -6 -6 -6 -6 -6 -6 -6 -6 -6 -6 -6 -6 -6 -6 -6 -6 -6 -6 -6 -6 -6 -6 -6 -6 -6 -6 -5 -5 -5 -5 -5 -5 -5 -5 -5 -5 -5 -5 -5 -5 -5 -5 -4 -4 -4 -4 -4 -4 -4 -4 -4 -4
-7 -7 -7 -7 -7 -7 -7 -7 -7 -7 -7 -7 -7 -7 -7 -7 -7 -7 -7 -7 -7 -7 -7 -7 -7 -7 -7 -7 -7 -6 -6 -6 -6 -6 -6 -6 -6 -6 -6 -6 -6 -6 -6 -6 -6 -6 -6 -6 -5 -5 -5 -6 -6 -6 -6 -6 -6 -6 -5 -5 -5 -5 -5 -5 -5 -5 -5 -5 -5 -4 -4 -4 -4 -5 -5 -5 -4 -4 -4 -4 -4 -4 -4 -4 -4 -4
-7 -7 -7 -7 -7 -7 -7 -7 -7 -8 -8 -8 -8 -8 -7 -7 -7 -7 -7 -7 -7 -7 -7 -7 -7 -7 -7 -7 -6 -6 -6 -6 -6 -6 -6 -6 -6 -6 -6 -6 -6 -6 -6 -6 -6 -5 -5 -5 -5 -5 -5 -5 -5 -5 -5 -5 -5 -5 -5 -5 -5 -5 -5 -5 -5 -5 -4 -4 -4 -4 -4 -4 -4 -4 -4 -4 -4 -4 -4 -4 -4 -4 -4 -4 -4 -4
Height
800 801 801 802 803 804 805 805 806 807 808 808 810 810 811 812 812 812 813 813 814 814 814 814 815 815 816 816 816 817 818 818 818 819 819 819 819 819 818 818 818 818 818 817 817 817 817 816 816 816 816 816 816 815 815 815 815 814 814 814 814 814 814 814 814 814 814 814 814 814 814 814 813 813 813 813 813 813 813 813 813 814 814 814 814 814
800 801 801 802 803 804 804 804 804 805 806 807 808 809 810 810 811 811 812 812 813 813 813 813 814 815 815 815 816 816 817 818 818 818 818 818 818 818 817 817 817 817 816 816 816 816 815 815 815 815 815 815 815 814 814 814 814 813 813 813 813 813 813 813 813 813 813 813 813 812 812 812 812 812 812 812 812 812 812 812 812 812 812 812 812 812
800 801 802 802 803 803 803 803 803 804 804 805 806 808 809 810 810 811 811 811 812 812 812 813 813 814 814 815 816 816 817 817 817 817 817 817 817 817 816 816 816 816 815 815 815 815 814 814 814 814 814 813 813 813 813 813 812 812 812 812 812 812 812 811 811 811 811 811 811 811 811 811 811 811 811 811 811 811 811 811 811 811 811 811 811 811
801 801 802 802 803 803 803 802 803 803 804 805 806 807 808 809 810 810 810 811 811 811 812 812 813 813 814 815 815 816 816 816 816 816 816 816 816 816 815 815 815 815 814 814 814 813 813 813 813 813 812 812 812 812 812 811 811 811 811 811 811 811 810 810 810 810 810 810 810 810 810 810 810 810 810 810 810 810 810 810 810 810 810 810 810 810
801 801 802 802 802 802 802 802 803 803 804 805 806 807 808 808 809 810 810 810 810 811 811 812 813 813 814 815 815 815 815 815 815 815 815 815 815 815 815 814 814 813 813 813 812 812 812 812 811 811 811 811 811 811 810 810 810 810 810 810 810 810 810 809 809 809 809 809 809 809 809 809 809 809 809 808 808 808 808 808 808 808 808 808 808 808
801 801 801 802 802 802 802 802 803 804 804 805 806 807 808 808 809 809 809 810 810 810 811 812 813 813 814 814 814 814 814 814 814 814 814 814 814 813 813 813 812 812 812 811 811 811 811 810 810 810 810 810 810 810 810 810 809 809 809 809 809 809 808 808 808 808 808 808 808 807 807 807 807 807 807 807 807 807 807 807 807 807 807 807 807 807
801 801 801 801 801 802 802 803 803 804 805 805 806 807 808 808 808 809 809 809 810 810 811 812 812 813 813 813 813 813 813 812 812 812 812 812 812 812 812 812 811 811 810 810 810 810 810 810 809 809 809 809 809 809 809 809 808 808 808 808 807 807 807 807 807 806 806 806 806 806 806 806 806 806 806 806 805 805 805 805 805 805 805 805 805 805
801 801 801 802 802 802 803 803 803 804 805 805 806 807 807 808 808 808 809 809 810 810 810 811 812 812 812 812 812 812 811 811 811 811 811 811 811 811 811 810 810 810 810 809 809 809 809 808 808 808 808 808 808 808 807 807 807 807 806 806 806 806 805 805 805 805 805 805 805 805 805 805 805 805 804 804 804 804 804 804 804 804 804 804 804 804
801 801 802 802 803 803 804 804 804 805 805 806 806 807 807 808 808 808 809 809 809 810 810 810 811 811 811 811 811 810 810 810 810 810 810 810 810 810 810 809 809 809 808 808 808 808 808 807 807 807 807 806 806 806 806 806 806 805 805 805 805 805 804 804 804 804 804 804 804 804 803 803 803 803 803 803 803 803 803 803 803 803 803 803 803 803
801 801 802 803 803 804 804 805 805 805 806 806 807 807 807 807 808 808 808 808 809 809 810 810 810 810 810 810 810 810 810 809 809 810 809 809 809 809 808 808 808 807 807 807 807 806 806 806 806 805 805 805 805 805 805 805 804 804 804 803 803 803 803 803 803 802 802 802 802 802 802 802 802 802 802 802 802 801 801 801 801 801 801 801 801 801
802 802 803 804 804 805 805 805 806 806 806 807 807 807 807 807 807 807 807 808 808 809 809 809 809 809 809 809 809 809 809 809 809 809 809 808 808 808 807 807 807 806 806 805 805 805 805 805 804 804 804 804 804 804 803 803 803 802 802 802 801 801 801 801 801 801 801 801 801 801 801 801 801 801 801 800 800 800 800 800 800 800 800 800 800 800
803 803 804 805 805 805 806 806 806 806 806 807 807 807 806 806 807 807 807 807 808 808 808 808 808 808 808 808 808 808 808 808 808 808 807 807 807 807 806 806 805 805 805 804 804 804 804 804 803 803 803 802 802 802 801 801 801 800 800 800 800 800 800 800 800 800 800 800 800 800 800 800 800 800 800 800 799 799 799 799 799 799 799 798 798 798
804 804 805 805 805 806 806 806 806 806 806 806 806 806 806 806 806 806 806 807 807 807 808 807 807 807 807 807 807 807 807 807 807 806 806 806 806 805 805 805 804 804 803 803 803 803 803 802 802 801 801 801 800 800 800 800 799 799 799 799 799 799 799 799 799 799 799 799 799 799 799 799 799 799 799 798 798 798 798 797 797 797 797 797 797 796
805 805 805 805 806 806 806 806 806 806 806 806 806 806 806 806 806 806 806 806 807 807 807 807 807 807 807 807 807 807 806 806 805 805 805 805 805 805 804 803 803 802 802 802 801 801 801 801 800 800 800 800 799 799 799 798 798 798 798 798 798 798 798 798 798 798 798 798 798 798 798 797 797 797 797 797 796 796 796 796 796 795 795 795 795 795
805 805 805 805 805 805 805 805 805 806 806 806 806 806 806 806 806 806 806 806 806 806 806 806 806 806 806 806 806 806 805 805 805 804 804 804 804 803 803 802 801 801 801 800 800 800 800 800 799 799 798 798 798 798 797 797 797 797 797 797 797 797 797 797 797 797 797 797 796 796 796 796 796 796 795 795 795 795 795 794 794 794 794 793 793 793
805 805 805 805 805 805 805 805 805 805 805 805 805 805 805 805 805 805 805 805 805 805 805 805 805 805 805 805 805 805 805 805 804 803 803 802 802 802 802 801 800 800 800 799 799 799 799 798 798 798 797 797 797 797 796 796 796 796 796 796 796 796 796 796 796 795 795 795 795 795 795 795 795 794 794 794 793 793 793 792 792 792 792 791 791 791
804 804 805 805 805 805 805 805 805 805 805 805 805 805 805 805 805 805 805 805 805 805 805 805 805 804 804 804 805 805 804 804 803 803 802 801 801 801 801 800 799 799 798 798 798 798 797 797 797 796 796 796 796 795 795 795 795 795 795 795 795 795 795 795 794 794 794 794 794 794 793 793 793 793 792 792 791 791 791 791 790 790 790 790 789 789
804 804 804 805 805 805 805 805 805 805 805 805 805 805 805 805 805 805 805 805 804 804 804 804 804 804 804 804 804 804 804 803 803 802 801 800 799 799 800 799 798 798 797 797 796 796 796 796 796 795 795 795 795 794 794 794 794 794 794 794 794 793 793 793 793 793 793 792 792 792 792 791 791 791 790 790 790 790 789 789 789 788 788 788 787 787
804 804 804 804 805 805 805 805 805 805 805 805 805 805 805 805 804 804 804 804 804 803 803 803 803 803 803 803 803 804 803 803 802 801 800 799 798 798 798 798 797 796 796 795 795 795 795 795 795 794 794 794 793 793 793 793 793 792 792 792 792 792 792 792 791 791 791 791 791 790 790 790 790 789 789 789 788 788 787 787 787 786 786 786 785 785
804 804 804 804 804 805 805 805 805 805 805 805 805 804 804 804 804 804 803 803 803 803 803 803 803 803 803 803 803 803 803 802 802 800 799 798 797 796 797 796 796 795 795 794 794 794 794 794 793 793 793 792 792 791 791 791 791 791 791 791 790 790 790 790 790 790 790 790 789 789 789 788 788 788 787 787 786 786 785 785 785 784 784 784 783 783
804 804 804 804 804 804 804 804 804 804 804 804 804 804 804 803 803 803 803 802 802 802 802 802 802 802 802 802 802 802 802 802 801 800 799 797 795 795 795 795 795 794 793 793 793 793 793 792 792 791 791 791 790 790 790 790 789 789 789 789 789 789 789 789 789 788 788 788 788 787 787 787 786 786 785 785 785 784 784 783 783 782 782 781 781 781
804 804 804 804 804 804 804 804 804 804 804 804 803 803 803 803 803 802 802 802 802 802 802 802 802 802 802 801 801 801 801 801 800 800 798 796 795 794 794 794 794 793 792 792 792 791 791 791 790 790 790 789 789 788 788 788 788 788 788 788 788 788 787 787 787 787 787 786 786 786 785 785 785 784 784 783 783 782 782 781 781 780 780 780 779 779
803 803 803 803 804 804 804 804 803 803 803 803 803 803 802 802 802 802 802 802 802 802 802 801 801 801 801 800 800 800 800 800 799 799 798 796 794 793 793 793 793 792 791 791 790 790 790 789 788 788 788 787 787 786 786 786 786 786 786 786 786 786 786 786 786 785 785 785 785 784 784 783 783 782 782 781 780 780 780 779 779 779 778 778 777 777
803 803 803 803 803 803 803 803 803 803 803 803 802 802 802 802 802 801 801 801 801 801 801 801 800 800 800 800 799 799 799 799 798 798 797 795 793 792 793 792 792 791 790 789 789 789 788 787 786 786 786 785 785 785 785 785 785 785 785 785 785 785 785 785 784 784 784 783 783 782 782 781 780 780 780 779 779 778 778 778 777 777 776 776 775 775
803 803 803 803 803 803 803 803 803 803 802 802 802 802 801 801 801 801 801 801 800 800 800 800 800 799 799 799 798 798 798 798 797 797 796 795 793 792 792 792 791 790 789 788 788 787 786 785 785 784 784 784 784 784 784 784 784 784 784 784 784 784 783 783 783 782 782 781 781 780 780 779 779 778 778 777 777 776 776 776 775 775 775 774 774 773
803 803 803 803 803 803 803 803 803 802 802 802 801 801 801 800 800 800 800 800 800 800 800 800 799 799 798 798 798 797 797 797 796 796 795 795 793 791 791 791 790 789 788 787 786 786 785 784 783 783 783 782 782 782 783 783 783 783 783 782 782 782 782 781 781 780 780 779 779 778 778 777 777 776 776 775 775 775 775 774 774 773 773 772 772 771
802 802 802 802 802 802 802 801 801 801 801 801 801 800 800 800 800 799 799 799 799 799 799 799 798 798 797 797 797 796 796 796 795 795 795 794 793 791 790 790 790 789 787 786 785 785 784 783 782 781 781 781 781 781 782 781 781 781 781 781 780 780 780 779 779 778 778 777 776 776 776 775 775 775 774 774 774 773 773 772 772 771 771 770 770 769
802 802 801 801 801 801 801 800 800 800 800 800 800 800 800 799 799 798 798 798 799 799 798 798 798 797 797 796 796 795 795 795 795 794 794 793 792 791 790 790 790 789 787 785 784 783 783 782 781 781 781 781 781 780 780 780 780 780 780 779 779 778 778 777 777 776 776 775 775 775 774 774 773 773 773 772 772 771 771 771 770 770 769 769 768 767
801 801 801 801 800 800 800 799 799 799 799 799 799 799 799 798 798 798 797 798 798 798 797 797 797 797 796 795 795 795 794 794 794 793 793 792 791 790 790 790 789 789 787 785 783 781 781 781 780 780 780 780 780 780 779 779 779 778 778 778 777 777 776 775 775 774 774 774 773 773 772 772 772 771 771 770 770 770 769 769 769 768 767 766 765 765
800 800 800 800 799 799 799 798 798 797 797 797 797 797 797 797 797 796 796 797 797 797 796 796 796 796 796 795 795 794 793 793 793 793 792 792 791 790 790 789 789 789 788 786 784 781 780 779 779 779 779 779 778 778 778 777 777 777 776 775 775 775 774 774 773 773 772 772 771 771 771 770 770 770 769 769 768 768 767 767 767 766 765 764 764 763
799 799 798 798 798 797 797 797 796 796 796 796 796 795 795 795 795 795 795 796 796 796 796 795 795 795 795 795 795 793 792 792 792 792 792 791 790 790 789 789 789 788 788 788 786 784 780 778 778 778 778 777 777 776 776 775 775 775 774 773 773 772 772 772 771 771 770 770 770 769 769 769 768 768 767 767 766 766 765 765 765 764 763 763 762 761
798 798 797 797 797 796 796 795 795 795 795 795 795 794 794 794 794 794 794 794 795 795 795 795 795 795 795 795 794 793 792 791 792 792 792 791 790 789 789 789 788 788 788 788 788 787 784 779 777 776 776 776 775 775 774 774 773 773 772 772 771 771 770 770 770 770 769 768 768 767 767 766 766 766 765 765 765 764 764 763 763 763 762 761 760 759
797 797 796 796 796 795 795 794 794 794 794 793 793 793 793 793 793 793 793 793 793 793 794 794 793 793 793 793 793 792 791 791 791 791 791 791 790 789 788 788 788 787 787 787 787 787 785 781 778 775 774 774 773 773 772 772 772 771 771 770 770 769 769 769 768 768 767 766 766 765 765 765 764 764 763 763 763 762 762 761 761 761 761 760 759 758
796 796 795 795 795 794 794 793 793 793 793 793 792 792 792 792 792 792 792 792 792 792 792 792 792 792 792 792 791 790 790 790 790 791 791 790 789 788 788 788 787 787 786 786 785 785 783 781 779 776 773 771 771 771 771 770 770 770 770 769 769 768 767 767 766 766 765 764 764 763 763 762 762 762 761 761 760 760 760 760 760 760 759 759 758 757
795 795 795 794 794 793 793 793 792 792 792 792 792 792 792 791 791 791 791 791 791 791 791 791 791 791 791 791 790 789 789 789 790 790 790 789 789 788 787 787 786 786 786 785 784 784 782 780 779 777 775 771 769 769 769 769 769 769 768 768 767 766 765 765 765 764 763 762 762 761 760 760 760 760 759 759 759 758 758 758 758 758 757 757 757 756
794 794 793 793 793 792 792 792 792 791 791 791 791 791 791 791 791 791 791 791 791 791 791 790 790 790 790 790 789 788 788 788 788 789 789 788 788 787 786 785 785 785 785 784 783 783 781 780 778 777 776 773 770 768 767 767 768 767 766 766 765 765 764 763 763 762 761 760 760 759 759 758 758 758 757 757 757 757 756 756 756 755 755 755 754 754
793 793 792 792 792 792 791 791 791 791 791 790 790 790 790 790 790 790 790 790 790 790 790 790 789 789 789 788 788 787 787 786 787 787 787 787 786 786 785 784 784 784 784 783 782 781 780 779 777 776 775 774 771 769 767 766 765 765 765 764 764 763 762 762 761 761 760 759 758 758 757 757 756 756 755 755 755 755 754 754 754 753 753 752 751 751
792 792 791 791 791 791 791 790 790 790 790 790 790 790 790 790 790 789 789 789 789 789 788 788 788 787 787 787 786 786 785 785 785 785 785 785 785 785 784 783 783 783 783 782 781 781 780 779 777 775 774 772 771 770 768 766 765 764 763 762 762 761 761 760 760 759 759 758 757 756 756 755 755 754 754 753 753 752 752 751 750 750 750 750 749 748
791 791 791 790 790 790 790 790 790 790 790 790 790 789 789 789 789 788 788 788 787 787 786 786 786 785 785 785 785 784 784 783 783 783 783 783 783 783 782 782 781 781 781 780 780 780 779 778 776 775 773 771 770 769 768 767 765 764 762 761 760 759 759 759 759 758 758 757 756 755 754 754 753 753 752 751 751 750 750 749 748 748 748 747 746 745
790 790 790 790 790 790 790 789 789 789 789 789 789 789 788 788 788 787 787 786 786 785 785 785 784 784 783 783 783 782 782 782 781 781 781 781 781 781 781 780 780 779 779 779 778 778 777 776 775 774 773 771 770 768 767 766 765 764 763 761 759 757 757 757 757 757 756 755 755 754 753 752 751 751 750 750 749 749 748 747 746 746 746 745 745 743
790 789 789 789 789 789 789 789 789 789 788 788 788 788 787 787 786 786 785 785 785 785 784 784 783 783 782 781 781 781 780 780 780 780 780 780 779 779 779 779 778 778 777 777 776 776 775 775 774 773 772 770 769 768 766 765 764 764 763 761 759 757 756 755 755 755 754 754 753 752 751 751 750 749 749 748 747 747 746 746 745 744 744 743 743 742
789 789 789 789 789 788 788 788 788 788 788 787 787 787 786 786 786 785 785 784 784 784 783 783 782 781 780 780 780 779 779 779 779 778 778 778 778 778 777 777 776 776 776 775 775 774 774 773 772 771 770 769 768 767 765 763 763 762 762 761 759 757 755 754 754 754 753 752 751 751 750 750 749 748 747 746 745 745 745 744 743 743 742 741 740 740
789 788 788 788 788 788 787 787 787 787 787 786 786 786 785 785 785 785 784 784 783 783 783 782 781 781 780 779 778 778 778 777 777 777 777 776 776 776 776 775 775 775 775 774 773 772 772 771 770 770 769 768 767 765 763 761 760 760 760 759 759 757 755 752 751 752 752 751 750 750 749 748 747 746 745 745 744 743 742 742 741 740 740 739 738 737
788 788 788 788 787 787 787 787 786 786 786 786 785 785 785 785 784 784 784 783 783 782 782 781 780 780 779 778 777 776 776 776 776 775 775 775 775 775 774 774 774 773 773 772 771 771 770 769 768 767 767 766 765 764 762 760 759 758 757 757 757 756 754 752 750 750 750 749 748 748 747 746 746 745 744 742 741 741 740 740 739 738 737 736 736 735
788 787 787 787 787 787 786 786 786 786 785 785 785 785 784 784 784 783 783 782 782 781 781 780 780 779 778 777 776 775 775 775 775 774 774 774 774 773 773 773 772 772 771 771 770 769 769 767 766 765 765 765 764 762 761 759 758 756 755 755 755 754 752 751 750 749 748 747 746 745 745 745 745 743 742 740 739 739 738 737 736 735 734 734 733 732
787 787 787 786 786 786 786 786 785 785 785 785 784 784 783 783 783 782 782 782 781 780 780 780 779 778 777 776 775 775 774 773 773 773 773 772 772 772 772 771 770 770 770 769 768 768 767 766 765 764 764 763 761 760 759 758 756 755 753 753 752 751 750 749 748 748 747 746 745 744 743 743 743 742 740 738 737 736 735 735 734 733 732 731 731 730
787 786 786 786 786 785 785 785 785 785 784 784 783 783 783 782 782 781 781 781 780 780 779 779 778 777 777 776 775 774 773 772 772 771 771 771 771 770 770 770 769 768 768 767 766 765 765 764 763 763 762 761 759 757 755 755 755 753 752 751 750 750 748 747 746 745 745 744 743 742 742 742 741 740 738 736 735 734 732 732 731 731 730 729 728 727
786 786 786 785 785 785 785 785 784 784 783 783 782 782 781 781 781 781 780 780 780 779 778 778 777 776 776 775 774 774 773 772 771 770 770 769 769 769 768 768 767 766 766 765 764 763 762 762 761 760 760 759 757 755 753 752 752 751 750 749 749 747 746 745 744 743 743 742 741 741 740 740 739 738 736 735 733 731 730 729 729 728 728 727 726 725
785 785 785 785 785 784 784 784 783 783 782 782 781 781 780 780 780 780 780 779 779 778 777 777 776 775 775 774 773 772 772 771 770 769 768 768 767 767 766 766 765 765 764 763 762 761 760 759 758 757 757 756 755 753 751 750 749 749 748 748 747 745 744 742 741 741 741 740 739 739 739 738 737 736 735 733 731 728 727 726 726 725 725 725 724 723
785 785 785 784 784 784 783 783 783 782 781 781 780 780 779 779 779 779 778 778 777 777 776 775 775 774 773 772 771 771 770 770 769 768 767 766 766 765 765 764 764 763 762 761 760 759 758 756 755 754 754 753 753 751 749 748 747 746 746 745 745 744 742 741 740 739 739 738 737 737 736 736 735 734 733 732 729 726 725 723 723 722 722 722 722 721
784 784 784 783 783 783 782 782 782 781 781 780 780 779 779 778 778 777 777 776 776 775 775 774 774 773 772 771 770 770 769 768 767 766 765 765 765 764 764 763 763 762 761 760 759 758 757 755 753 751 750 750 750 749 748 746 745 745 744 743 742 742 741 739 738 737 737 736 736 735 734 734 733 732 731 730 728 725 723 721 720 720 720 720 720 719
Wind_Speed
13 15 18 21 23 24 25 26 26 26 26 25 25 24 24 23 23 23 22 21 21 20 19 17 14 12 9 7 7 8 10 11 12 12 12 12 12 12 11 11 11 11 11 11 11 11 12 12 12 12 12 12 12 12 12 12 12 12 11 11 11 12 12 12 12 12 12 12 12 12 12 12 12 13 13 13 13 13 13 14 14 14 15 15 15 16
11 12 14 17 20 22 23 25 26 26 26 25 25 24 24 23 23 23 23 22 21 20 17 14 10 8 7 7 8 10 11 12 12 12 12 11 11 11 11 11 11 11 11 11 11 11 12 12 12 12 12 12 12 12 12 12 12 11 11 11 11 11 11 12 12 12 12 12 12 12 12 13 13 13 13 13 14 14 14 14 14 15 15 15 15 16
9 10 12 14 17 19 20 22 23 24 25 24 24 24 23 23 23 23 23 21 19 15 12 9 7 7 8 9 10 12 12 12 12 11 11 11 11 10 10 10 10 10 11 11 11 11 12 12 12 12 12 12 12 12 12 11 11 11 11 11 11 11 11 12 12 12 12 12 13 13 13 13 13 13 14 14 14 14 14 15 15 15 15 15 16 16
9 10 12 13 15 17 18 19 20 21 22 22 22 22 22 22 21 20 18 15 12 10 8 6 7 8 10 11 12 13 14 13 11 10 10 10 10 10 10 10 10 10 11 11 11 11 11 11 11 11 11 11 11 11 11 11 10 10 10 11 11 11 12 12 12 12 13 13 13 13 13 13 14 14 14 14 14 15 15 15 15 15 15 15 16 16
10 11 12 13 13 14 16 17 17 17 18 18 18 18 18 17 15 13 11 9 8 7 7 8 9 11 12 13 14 14 13 11 10 9 9 9 9 9 10 10 11 11 12 12 12 12 12 11 11 11 11 11 10 10 10 10 10 10 10 11 11 11 11 12 12 12 13 13 13 13 14 14 14 14 14 14 15 15 15 15 15 15 15 16 16 16
10 10 11 12 12 12 13 14 14 13 13 13 13 13 12 11 10 9 8 7 7 7 9 10 12 13 14 15 14 13 11 9 9 9 9 9 9 10 10 11 12 13 13 13 12 12 11 11 11 11 11 10 10 10 10 10 10 10 10 11 11 11 11 11 11 12 12 13 13 13 13 14 14 14 14 14 15 15 15 15 15 15 16 16 16 16
9 10 11 12 12 11 11 11 11 10 10 10 9 9 8 8 7 7 7 7 8 9 10 12 13 14 15 14 13 12 10 9 9 10 10 11 11 12 12 13 14 14 13 12 12 11 11 11 10 10 10 10 10 10 10 10 10 10 10 10 11 11 11 11 12 12 12 13 13 13 13 14 14 14 14 15 15 15 15 15 15 15 16 16 16 16
8 9 9 10 10 9 8 8 8 8 8 8 8 7 7 7 7 7 8 8 9 10 11 12 13 14 14 13 12 11 10 10 11 11 12 13 14 14 15 16 16 14 12 11 10 10 10 10 10 9 9 9 9 9 10 10 10 10 11 11 11 12 12 12 12 12 13 13 13 13 13 14 14 14 14 14 14 15 15 15 15 15 15 16 16 16
7 7 7 8 7 6 6 6 6 7 7 7 7 7 8 8 8 8 9 10 11 12 13 13 14 13 12 12 11 10 10 11 11 12 12 13 15 16 17 16 14 12 10 9 9 9 9 9 9 9 9 9 9 9 10 10 11 12 12 12 12 12 12 12 13 13 13 13 13 13 13 13 14 14 14 14 14 14 14 15 15 15 15 16 16 16
6 6 6 7 7 6 6 6 6 6 6 7 7 7 8 9 10 10 11 12 12 13 13 14 13 12 11 11 10 10 10 11 11 12 13 14 15 16 16 14 11 9 8 8 8 8 8 8 8 8 9 10 10 11 11 12 12 13 13 13 13 13 13 13 13 13 13 13 13 13 13 13 13 13 13 14 14 14 14 14 15 15 15 16 16 17
4 4 5 5 6 6 6 6 5 5 6 7 8 8 9 10 11 11 12 12 13 13 13 13 12 11 10 9 9 10 11 11 12 13 14 16 16 15 14 12 10 9 9 9 9 9 9 9 10 10 11 12 12 13 13 14 14 14 14 14 13 13 13 13 13 13 13 13 13 13 13 13 13 13 13 13 14 14 14 15 15 15 16 16 17 17
3 3 4 5 5 6 6 6 6 6 7 8 9 10 12 12 12 13 13 13 13 12 11 11 10 10 9 8 9 10 11 12 14 15 16 16 15 13 12 11 10 10 10 11 11 11 12 12 13 14 14 15 15 16 16 16 16 15 15 14 13 13 12 12 12 12 12 12 12 12 12 13 13 13 13 14 14 15 15 15 16 16 17 17 18 18
3 3 3 4 5 5 6 6 7 7 8 9 10 11 13 13 14 14 14 14 13 11 10 9 8 8 8 9 9 10 12 13 15 16 15 14 12 11 10 11 11 11 12 12 12 12 13 14 15 15 16 16 16 16 16 15 15 14 13 12 12 11 11 11 11 12 12 12 12 12 13 13 13 14 14 14 15 15 16 16 17 17 18 18 18 19
2 3 3 4 4 5 6 7 7 8 9 10 11 11 11 12 13 13 14 13 11 10 9 8 8 7 8 9 9 10 12 13 14 15 14 13 12 11 12 13 13 13 13 13 13 13 13 13 13 13 13 12 12 12 12 12 11 11 10 10 10 10 11 11 11 12 12 12 13 13 13 13 14 14 15 15 16 16 17 17 18 18 18 19 19 20
3 3 4 5 5 5 6 7 8 8 9 10 11 11 11 11 10 10 10 9 8 8 7 8 8 8 8 8 8 9 11 12 13 14 14 13 13 13 13 14 15 15 15 15 14 13 11 10 10 9 9 8 8 8 8 8 8 8 9 9 10 11 11 12 12 12 12 13 13 13 13 14 14 15 15 16 16 17 17 18 18 18 19 19 19 20
4 5 5 6 6 6 7 7 7 7 7 8 9 9 9 8 7 7 7 6 6 6 6 6 7 8 8 7 7 8 10 12 13 14 14 15 15 15 14 15 16 16 16 16 15 13 10 9 8 7 7 7 7 7 7 7 8 9 10 11 11 11 12 12 12 12 13 13 13 13 13 14 14 15 15 16 16 17 17 18 18 19 19 19 20 20
6 6 7 7 7 7 6 6 6 5 5 5 6 6 6 6 6 6 6 6 5 5 5 6 5 5 6 7 7 7 9 12 14 15 16 17 17 17 16 15 16 17 17 16 14 13 11 9 8 8 8 8 7 7 8 9 10 11 11 12 12 12 12 12 12 13 13 13 13 13 14 14 15 15 16 16 17 17 18 18 19 19 19 20 20 20
7 8 8 7 7 6 5 4 4 4 4 4 4 5 5 5 5 5 5 5 5 5 5 6 5 5 6 7 8 8 10 13 15 16 18 19 19 18 17 16 16 17 17 16 14 12 11 10 10 9 10 10 10 10 10 11 11 12 12 12 12 12 12 13 13 13 13 13 13 14 14 15 15 16 16 16 17 17 18 18 18 19 19 19 20 20
5 5 5 4 3 3 3 3 3 3 2 2 3 3 4 4 4 5 5 5 5 6 6 6 6 7 8 9 10 11 12 14 15 17 18 18 19 18 17 16 15 16 16 15 14 12 12 11 11 11 12 12 12 12 12 12 12 12 12 13 13 13 13 13 13 13 13 13 14 14 14 15 15 16 16 16 17 17 17 18 18 18 19 19 20 20
1 1 1 1 1 2 2 2 2 2 2 2 2 3 3 4 4 5 5 6 6 7 7 7 7 8 9 10 11 12 13 14 15 16 16 17 18 18 16 14 14 15 15 15 14 13 13 13 13 13 13 13 14 13 13 13 13 13 13 13 13 13 13 13 13 13 13 14 14 14 15 15 15 15 15 16 16 17 17 18 18 19 19 20 20 20
2 1 1 2 2 2 2 2 3 3 3 4 4 4 4 5 5 6 6 7 8 8 8 8 8 9 10 11 12 13 14 14 15 15 15 15 16 16 15 13 13 14 15 15 14 14 14 14 15 15 15 15 15 14 13 13 13 13 13 13 13 13 13 13 13 13 14 14 14 14 14 14 15 15 15 16 17 17 18 19 19 20 20 20 21 21
3 2 3 3 3 3 3 4 4 5 5 6 6 6 6 7 7 7 8 8 9 9 9 9 10 11 12 13 14 14 15 14 14 13 13 13 14 15 13 12 12 13 14 15 15 15 16 16 17 16 16 16 15 14 13 12 12 12 13 13 13 13 13 13 13 13 13 13 13 13 14 14 15 15 16 17 17 18 19 19 19 20 20 20 20 21
4 3 4 4 4 4 5 5 6 7 7 7 8 8 8 9 9 9 9 9 9 9 10 10 11 12 13 14 14 14 14 12 12 12 10 9 11 13 12 12 12 14 15 16 17 17 18 18 18 18 17 16 14 12 11 11 11 12 12 12 12 12 12 12 12 12 12 13 13 13 14 15 16 16 17 18 18 18 18 18 19 19 19 19 20 20
3 4 4 4 5 5 6 6 7 8 8 8 9 9 9 10 10 10 10 9 9 10 10 11 12 13 13 13 13 12 11 10 10 9 8 8 10 12 12 13 14 15 17 17 18 18 20 21 20 19 17 15 12 10 9 9 10 11 11 11 11 11 11 11 11 12 12 13 13 14 15 16 17 17 17 17 17 17 17 18 18 18 18 19 19 20
3 3 4 4 5 5 6 7 7 8 8 9 9 9 10 10 10 10 10 10 10 11 11 12 13 13 13 12 12 11 10 9 9 9 9 9 11 13 13 13 14 16 17 18 19 20 21 22 22 19 16 12 9 8 7 7 8 9 9 9 9 9 10 10 11 12 13 14 15 16 17 17 17 17 17 17 16 17 17 17 17 18 18 19 19 20
3 3 4 4 5 5 6 6 7 7 8 9 9 10 10 10 11 11 11 11 11 11 11 11 12 12 12 11 11 11 10 9 9 9 9 9 11 13 14 14 14 15 17 19 20 20 21 22 21 17 13 9 6 5 4 5 6 6 7 8 8 9 10 12 13 15 16 17 17 17 16 16 16 16 16 16 16 16 17 17 17 18 18 19 19 20
2 3 4 4 5 6 6 7 8 8 8 9 9 10 10 11 11 10 10 10 10 10 10 9 10 10 11 11 11 11 10 10 10 10 10 11 12 12 13 13 14 15 18 20 21 21 20 19 17 14 9 5 3 2 3 4 5 6 7 8 10 12 14 15 16 17 17 16 16 15 15 15 16 16 16 16 17 17 17 17 17 18 18 19 19 20
5 5 6 7 8 9 10 10 10 10 10 10 9 10 10 11 11 11 11 10 10 10 10 9 9 9 9 10 11 12 12 11 11 11 12 11 11 10 12 13 14 16 18 19 21 20 18 15 13 10 6 3 2 3 4 6 7 9 10 12 14 16 17 17 17 16 15 15 14 14 15 15 16 16 16 17 17 17 17 17 17 18 18 18 19 20
8 9 10 10 11 12 13 13 13 12 11 10 10 9 10 11 11 12 12 11 10 10 10 10 10 10 10 11 12 13 13 12 11 10 10 10 9 10 12 13 14 15 17 18 19 18 15 12 9 6 4 3 4 5 7 9 11 13 15 16 17 17 17 16 15 14 14 14 15 15 16 16 16 16 17 17 17 17 17 17 17 17 18 18 19 20
12 12 13 13 14 15 15 14 13 11 10 9 9 9 9 10 11 11 11 11 10 10 11 10 10 10 10 11 11 10 10 9 8 7 8 8 9 10 12 13 13 14 15 15 13 12 12 10 7 4 4 5 7 9 11 14 16 17 18 18 17 16 15 15 15 15 15 16 16 16 17 17 17 17 17 17 17 17 17 17 17 17 18 18 19 20
15 16 16 16 17 17 16 14 12 10 9 9 9 9 9 10 10 11 11 11 11 11 11 11 11 11 10 9 6 4 5 7 6 6 8 9 10 11 12 13 13 13 12 11 8 6 7 8 7 5 6 9 13 15 17 18 18 18 18 17 16 16 15 15 16 16 17 17 17 18 18 17 17 17 17 17 17 17 16 16 16 17 17 18 19 20
17 18 18 19 19 18 17 14 12 10 9 9 9 9 9 9 10 10 10 10 11 11 12 12 12 12 11 10 8 6 8 9 9 8 9 10 11 12 12 12 12 12 11 10 8 6 4 6 9 12 14 16 17 18 18 18 17 17 16 16 17 17 17 17 17 17 18 19 19 19 18 18 17 17 17 16 16 16 16 16 16 16 17 18 18 19
17 18 19 20 20 18 16 13 11 10 9 9 8 8 8 8 8 9 9 9 10 10 11 12 12 12 12 12 13 13 14 13 11 10 10 10 11 12 12 12 12 12 12 12 11 11 9 11 15 18 19 19 18 17 17 17 16 16 15 16 17 18 19 19 19 20 20 20 20 20 19 18 18 17 17 17 17 17 16 16 15 15 16 17 18 19
17 18 19 20 19 17 14 11 9 8 7 6 6 6 6 6 6 6 7 7 8 9 10 11 11 12 12 12 13 14 15 14 12 10 10 10 11 12 13 13 13 13 13 12 12 12 13 15 17 18 19 20 19 17 16 16 16 15 15 16 18 20 21 21 21 21 22 21 21 21 20 19 19 19 18 18 18 17 17 16 16 16 16 17 18 19
18 19 20 20 18 16 12 9 7 6 5 4 4 4 5 5 5 5 6 7 7 8 9 10 11 12 12 12 12 13 14 13 11 10 10 11 12 12 13 13 13 12 12 12 12 12 12 15 16 17 18 20 20 19 17 15 15 16 17 18 19 21 22 22 22 22 22 22 21 21 21 20 20 20 20 20 19 18 17 17 17 17 17 18 18 19
19 20 21 20 17 14 11 9 7 5 4 4 4 4 4 4 5 5 6 7 8 9 10 10 11 12 13 14 14 15 15 15 14 13 13 13 13 14 13 14 13 13 12 12 12 12 12 14 16 17 17 18 18 19 18 17 17 18 19 20 21 21 22 22 22 21 21 21 21 21 21 21 21 22 22 21 20 19 18 18 19 19 19 19 19 19
20 21 20 18 15 12 10 8 7 6 5 5 5 5 6 6 6 7 8 8 9 10 11 11 12 13 14 15 16 17 18 18 17 16 15 15 15 15 15 15 15 14 13 13 13 13 13 14 15 16 16 15 16 17 19 20 21 20 21 21 21 22 22 22 21 20 20 20 21 21 22 22 22 22 23 22 21 21 21 21 21 21 21 21 20 19
21 20 18 15 13 10 9 8 7 7 6 6 6 7 8 8 9 9 10 10 11 12 12 13 14 15 16 17 17 18 18 18 18 17 16 15 15 16 16 16 16 16 15 15 15 15 14 14 13 13 13 15 16 18 19 21 21 21 22 22 22 22 21 20 19 19 19 20 21 22 22 22 22 23 23 23 23 23 24 24 23 23 22 21 21 21
18 16 14 12 10 9 8 8 7 7 7 8 8 8 9 10 10 11 12 12 13 14 14 15 16 16 17 17 18 18 18 18 17 17 16 15 15 15 16 17 17 17 17 16 16 16 15 14 13 13 13 15 17 18 19 19 20 21 22 23 22 21 20 18 18 18 19 20 22 23 23 23 23 23 23 24 24 24 24 24 24 24 23 23 24 24
13 12 11 10 9 8 8 8 8 8 8 8 9 9 10 11 12 12 13 13 13 14 14 15 15 16 16 17 17 17 17 16 16 15 14 14 14 14 15 17 17 17 17 17 17 16 16 16 16 16 16 16 17 18 19 19 20 20 20 21 21 20 20 19 19 20 21 21 22 22 23 23 23 23 23 23 23 24 24 24 24 24 24 24 24 25
10 10 10 9 9 8 8 8 8 8 8 9 10 10 11 11 12 12 13 13 13 13 12 13 13 14 15 15 15 14 14 14 13 12 12 12 12 13 14 15 16 17 16 16 16 16 16 16 17 17 17 18 18 19 20 20 20 19 19 19 20 22 23 22 21 21 20 20 21 21 21 22 22 23 23 23 24 24 24 24 25 25 25 25 24 24
9 10 10 10 9 9 9 8 8 8 9 10 10 11 11 11 12 13 13 13 13 13 12 12 13 14 15 15 14 13 13 12 12 12 12 12 12 12 13 14 15 15 16 16 17 17 17 17 17 18 18 18 18 19 20 21 20 19 19 19 21 23 23 22 20 18 18 19 20 20 21 22 22 23 24 24 25 25 25 25 25 25 25 24 24 24
9 10 10 10 10 9 9 8 8 8 9 10 11 11 11 11 12 12 12 13 13 13 12 12 13 14 15 15 14 14 13 13 12 11 11 11 11 11 12 12 13 14 15 16 17 17 17 17 18 18 19 18 18 19 20 21 21 20 20 19 20 20 18 20 19 18 18 19 20 21 21 22 23 23 24 24 25 25 25 25 25 24 23 23 23 24
10 10 10 9 9 8 8 8 8 9 10 11 11 12 12 11 11 11 11 12 12 12 12 13 14 14 15 15 15 15 14 13 12 11 11 11 11 11 11 12 12 13 14 16 17 17 17 17 18 18 18 18 19 19 20 21 21 21 21 20 19 19 19 20 21 21 21 21 21 21 21 22 23 23 24 25 25 25 24 23 23 23 23 23 24 24
9 9 8 8 8 8 8 8 9 10 10 11 12 12 11 11 10 10 11 12 12 13 13 13 13 13 13 13 14 14 14 13 12 12 11 11 10 10 11 12 12 13 14 16 17 18 18 18 18 18 18 18 19 20 21 21 21 22 22 21 20 20 22 23 23 22 22 22 22 22 22 22 23 23 24 24 23 23 23 23 23 23 24 24 24 24
9 8 8 8 8 9 9 10 10 10 11 11 11 11 11 10 10 10 11 12 13 14 14 13 13 12 12 13 14 14 14 14 14 13 12 12 11 11 11 12 13 14 15 16 18 19 20 20 20 20 19 19 19 21 21 21 21 22 22 21 21 21 22 22 22 22 21 22 22 22 22 22 22 22 22 23 23 23 23 23 22 23 23 23 24 24
8 8 8 9 9 10 10 10 10 11 11 11 11 11 11 10 11 11 12 12 13 14 14 13 12 12 13 13 14 14 14 15 15 15 14 14 13 13 13 13 14 15 16 17 18 20 21 22 23 22 21 20 20 21 22 21 21 21 22 21 21 21 21 22 22 21 21 21 22 22 22 22 22 22 22 23 23 23 23 22 22 22 22 22 23 23
9 9 9 10 10 11 11 11 11 11 12 12 13 12 12 12 12 12 13 13 13 13 13 13 13 13 14 14 15 15 15 15 15 16 15 15 15 15 15 15 15 16 16 17 19 20 22 23 24 24 24 23 22 22 22 22 21 21 21 21 21 21 21 22 22 21 21 22 23 23 23 22 21 21 22 23 24 24 24 23 22 22 22 22 22 22
9 9 10 10 11 11 12 12 12 12 13 13 14 14 14 13 12 12 12 13 13 14 14 13 13 14 14 15 15 15 15 16 16 16 16 16 15 15 15 15 15 16 16 17 18 19 21 22 23 23 24 24 24 24 24 23 22 21 21 21 20 21 21 22 22 22 21 21 22 23 23 22 22 22 22 22 24 25 25 25 24 23 22 21 21 22
10 10 10 11 11 12 13 13 13 13 14 14 14 14 15 14 13 13 13 13 14 14 14 14 14 14 14 15 15 15 15 16 16 16 16 16 15 15 15 15 15 15 15 16 16 16 17 18 19 20 21 22 23 24 25 24 23 22 21 21 20 21 21 22 22 22 21 21 22 22 22 22 22 22 21 21 22 24 25 25 24 23 22 21 22 23
11 11 11 12 12 13 13 14 14 14 14 14 14 14 14 14 14 13 13 13 14 14 14 14 14 15 15 15 16 16 16 16 16 16 17 16 16 15 15 15 15 14 14 14 14 13 13 13 14 16 18 18 19 21 24 24 23 22 21 21 21 21 21 22 23 23 23 22 22 22 22 22 21 20 19 20 21 23 24 24 24 24 22 21 22 23
Wind_Direction
211 214 218 221 221 222 227 231 233 234 236 237 236 233 233 235 239 243 248 252 256 259 261 261 258 255 255 264 271 270 265 267 270 273 275 276 276 276 277 278 279 279 279 279 278 277 277 276 275 275 274 274 274 275 276 277 278 279 280 280 280 279 279 279 279 279 278 277 277 277 278 278 279 280 281 279 279 281 280 279 279 279 279 279 279 280
203 210 216 222 224 225 227 233 235 235 234 234 234 233 234 236 241 247 252 256 258 259 259 257 255 257 268 280 280 273 266 267 271 274 276 277 277 278 279 280 282 282 283 282 282 280 279 278 276 275 275 275 275 275 276 277 278 278 279 279 279 279 279 279 279 279 278 278 278 278 278 278 278 278 278 278 278 278 278 278 278 278 278 278 278 277
190 200 210 221 225 226 226 230 234 235 235 234 235 237 238 241 245 250 253 256 256 255 253 252 256 267 274 275 272 268 268 271 274 275 276 278 279 281 283 285 286 286 287 286 284 283 281 279 279 278 278 277 277 277 277 277 278 278 278 278 279 279 279 278 278 278 278 278 278 277 278 277 277 278 278 278 278 277 277 277 277 278 277 277 277 277
188 195 206 216 222 224 225 227 230 233 235 236 238 240 242 244 247 250 251 250 249 247 247 254 264 269 269 267 267 269 272 274 275 275 277 279 281 284 286 287 289 289 290 289 288 286 284 282 281 281 280 281 280 280 280 279 279 279 279 279 278 277 277 276 276 276 276 276 276 276 276 276 276 276 276 277 277 277 277 277 278 278 278 277 277 277
189 197 205 207 209 214 221 225 227 230 233 234 236 238 240 241 242 241 240 238 238 243 251 260 264 265 265 266 268 272 274 274 275 276 278 280 283 285 287 289 291 292 292 290 289 287 285 283 282 282 281 281 281 280 279 279 280 280 279 279 279 278 277 277 277 277 276 276 276 275 274 274 274 274 275 275 276 277 277 278 278 279 279 278 278 277
187 195 201 199 197 202 212 219 223 225 225 225 226 226 227 227 228 228 228 230 237 246 252 257 259 261 264 267 270 271 271 269 270 273 274 275 278 281 285 290 293 294 292 290 287 285 284 282 282 281 281 280 280 279 279 279 280 281 282 283 283 284 284 283 281 280 280 278 277 276 275 274 274 274 275 275 276 276 277 278 278 278 279 279 279 279
184 192 197 195 197 203 209 213 215 214 210 208 209 211 214 218 222 227 231 236 241 246 250 253 256 260 263 267 269 269 267 263 262 263 265 268 271 276 283 289 292 293 291 289 287 284 283 282 282 282 281 281 280 279 279 280 281 283 285 285 286 286 284 283 281 280 280 279 278 277 276 275 275 275 275 275 276 276 276 277 278 278 279 280 280 280
176 187 193 194 197 204 209 210 210 207 203 201 202 208 216 223 230 235 239 242 245 249 252 255 258 261 264 267 268 267 265 262 261 262 265 268 273 279 285 289 292 292 291 289 287 286 285 284 284 284 284 283 282 281 281 283 284 285 285 284 284 283 281 280 279 278 278 277 277 276 276 275 275 275 275 275 276 276 276 277 277 278 278 279 279 280
164 172 186 195 198 201 206 210 210 208 208 209 213 218 225 232 237 241 244 246 248 251 255 257 260 263 266 268 267 265 263 263 264 266 269 274 280 286 290 292 292 290 290 289 288 288 287 287 287 287 289 288 286 285 285 286 285 284 284 283 282 281 280 279 279 278 278 277 276 276 275 275 275 275 275 275 275 276 276 277 277 277 278 278 279 279
162 168 181 198 207 211 213 218 216 213 215 220 226 231 236 240 243 246 249 250 251 253 256 258 261 264 267 266 264 263 262 263 265 269 274 281 287 291 292 289 285 281 283 286 287 287 285 285 286 289 291 292 290 288 288 287 285 284 283 283 282 281 280 279 278 278 278 277 277 276 275 275 274 274 274 275 275 275 276 276 277 277 277 278 278 278
158 178 189 203 215 224 231 234 231 226 225 230 236 240 244 247 248 249 250 252 253 255 257 260 263 263 262 260 261 261 263 266 269 274 280 286 290 290 286 279 272 269 272 275 276 276 276 279 282 286 288 290 288 287 286 285 283 282 282 281 280 279 278 277 277 277 277 277 276 276 275 274 274 274 274 274 274 275 275 275 276 276 277 277 277 278
159 187 205 213 223 233 242 248 247 243 239 238 240 243 247 249 250 250 249 251 254 256 257 260 260 259 256 257 261 266 270 275 280 286 290 293 292 288 279 270 265 265 268 270 270 271 273 276 279 281 282 282 281 280 280 279 278 278 277 276 276 276 276 276 276 277 276 276 275 274 274 274 273 273 274 274 274 274 275 275 275 276 276 276 277 277
188 207 220 227 234 241 247 250 250 248 244 239 237 240 245 249 251 251 250 252 255 256 254 252 252 254 258 263 271 278 284 289 293 297 300 302 300 293 284 278 275 275 275 275 274 274 276 278 279 279 279 278 277 275 274 273 272 271 270 270 273 276 276 277 277 276 276 275 275 274 274 273 274 274 274 274 275 275 275 275 275 276 276 276 276 276
223 235 248 258 259 256 254 251 247 243 241 241 242 243 247 249 249 249 249 249 250 251 248 246 249 257 268 277 284 290 295 300 303 306 308 308 306 302 297 293 290 288 286 286 284 283 285 286 285 281 278 275 273 271 269 267 266 266 268 272 276 278 278 278 277 277 277 276 275 275 275 275 275 275 276 276 276 276 276 276 277 277 277 277 277 277
265 275 284 282 277 270 264 258 253 249 249 248 247 246 246 247 247 245 243 240 240 242 247 252 261 271 278 284 291 297 301 305 308 309 309 307 305 303 301 299 297 295 295 295 295 296 297 297 295 291 284 278 274 272 270 269 269 273 277 280 281 280 280 279 279 278 278 278 278 277 276 277 277 278 278 278 278 278 279 278 279 279 279 278 278 278
277 281 282 279 275 271 267 263 260 259 257 253 249 245 243 242 241 239 234 230 235 246 260 274 283 286 284 285 291 299 304 306 307 307 306 303 300 299 300 300 300 299 299 301 303 306 309 310 307 302 297 291 286 283 282 283 284 285 285 284 282 281 281 281 281 281 280 280 280 279 278 279 280 280 281 281 281 281 281 281 280 280 280 280 279 279
277 275 272 269 267 267 266 264 262 263 263 256 249 242 237 235 236 236 234 238 248 263 275 284 291 294 291 290 293 299 304 306 305 304 304 301 299 298 299 300 300 300 302 304 308 313 318 318 316 312 308 305 302 300 297 294 291 288 286 284 283 283 283 283 283 283 282 282 281 280 280 281 282 282 282 282 283 282 282 281 281 281 281 280 280 280
269 268 264 261 261 262 263 264 265 267 264 257 248 241 238 237 239 243 248 256 266 278 286 289 288 289 292 293 295 300 304 306 305 305 305 302 300 299 299 300 300 300 302 305 310 316 320 320 318 316 313 311 310 306 300 294 290 287 286 285 285 285 285 285 285 285 284 283 282 282 282 282 283 283 283 283 283 283 283 282 282 282 281 281 281 280
265 263 259 259 263 267 268 271 272 271 265 256 254 250 246 248 255 262 268 276 284 290 295 295 291 288 289 289 294 299 303 304 305 306 305 302 300 300 301 301 301 301 303 307 312 318 320 318 316 315 312 311 307 302 297 293 290 288 287 287 287 286 286 286 286 285 284 284 283 283 283 283 284 284 284 284 284 284 284 283 283 283 283 282 281 281
304 291 272 282 294 296 293 290 284 279 273 272 275 276 274 277 280 284 289 295 299 300 300 297 292 290 291 292 296 299 301 303 305 305 303 299 298 299 301 302 301 301 303 308 313 317 317 315 313 311 309 306 304 301 298 295 292 289 288 287 287 287 286 286 286 285 285 284 284 284 284 284 284 284 284 284 284 284 284 284 284 284 283 283 282 282
5 358 320 305 309 317 314 305 297 293 292 293 298 300 299 299 298 299 300 302 303 302 300 295 292 291 294 295 296 298 300 303 305 305 301 297 296 297 301 303 303 303 303 307 311 314 313 311 309 308 306 305 303 302 299 295 292 289 288 287 287 287 286 286 285 285 285 284 284 284 284 285 285 285 285 286 286 286 285 285 285 285 284 284 283 282
334 329 315 308 308 309 309 305 304 302 301 303 306 308 308 307 305 302 300 299 298 296 294 292 292 294 295 296 296 297 299 301 303 303 300 295 293 295 303 307 307 304 302 305 308 310 310 309 308 308 308 307 306 304 300 296 292 289 288 288 287 286 286 285 285 286 286 286 286 285 286 287 287 287 287 287 287 287 286 286 285 285 284 284 283 283
318 314 312 310 310 308 310 311 310 309 307 307 306 306 306 306 302 298 296 294 293 291 292 293 295 295 295 295 296 297 299 302 304 302 298 289 289 297 307 310 308 303 301 303 307 310 310 310 310 311 312 311 310 306 301 296 292 290 289 287 287 286 286 286 286 287 288 289 288 288 288 288 288 288 288 288 287 287 286 286 285 285 284 284 283 283
318 317 318 319 318 318 317 318 317 314 311 308 307 307 307 304 301 298 296 294 292 292 293 295 296 296 295 296 298 300 301 305 307 303 294 285 288 297 305 308 307 305 303 306 309 312 312 312 312 314 316 315 313 309 302 296 291 289 288 287 287 287 287 288 289 290 291 291 291 291 290 290 290 290 289 289 289 288 287 286 286 285 285 284 284 283
338 339 340 337 332 328 325 323 319 314 310 307 306 305 304 302 299 296 293 291 290 290 291 293 293 293 294 297 298 299 300 305 305 299 292 289 291 295 300 304 306 306 306 309 312 313 313 312 314 317 319 319 316 309 302 295 289 287 287 287 287 287 288 288 290 291 291 292 293 293 293 293 293 292 292 291 290 289 288 287 287 286 285 285 284 283
30 17 5 355 341 328 321 314 308 305 304 304 304 305 304 301 296 291 286 284 284 286 288 289 288 289 291 294 295 296 299 302 302 297 293 291 292 295 299 304 308 309 309 311 312 313 312 311 313 318 323 323 319 309 299 288 282 281 284 286 286 287 288 289 290 290 291 292 293 294 294 294 294 293 293 292 291 291 289 288 287 287 286 286 285 284
14 353 341 332 324 317 314 305 299 295 296 297 299 300 300 298 295 291 286 283 284 285 286 286 286 288 290 291 292 294 298 300 299 296 293 291 290 292 298 306 312 313 313 313 312 312 311 309 311 317 323 329 326 300 279 268 266 270 278 283 286 288 289 291 292 293 294 294 295 295 296 295 295 294 294 293 292 292 291 289 288 287 287 287 286 283
301 304 304 303 303 304 304 300 295 291 290 290 290 290 289 288 288 287 285 285 285 285 283 281 283 286 289 289 291 294 297 297 295 294 294 291 287 289 299 309 314 317 318 315 314 313 311 309 310 315 319 322 303 271 261 261 265 271 279 284 288 291 293 295 296 298 299 299 299 298 297 296 295 295 294 294 293 293 291 290 289 289 288 287 285 283
293 295 297 299 301 303 302 299 295 291 287 286 286 285 281 277 276 277 278 280 281 280 278 276 276 279 284 288 292 294 295 293 292 293 295 294 292 294 303 311 316 319 322 320 318 316 313 310 309 310 306 288 268 263 264 271 277 283 288 292 295 297 299 301 303 304 304 303 302 300 298 297 296 294 294 293 293 292 292 291 291 290 289 287 286 284
296 297 298 301 305 308 308 305 299 292 286 283 279 276 272 267 267 269 272 274 275 274 273 273 274 275 280 287 293 295 294 293 294 298 300 303 301 302 307 311 315 319 324 324 322 318 313 309 303 291 277 273 274 276 281 287 293 297 300 303 305 306 307 308 309 308 306 304 302 301 298 297 296 295 294 293 293 292 292 292 292 291 290 289 287 286
304 307 309 311 313 315 314 309 301 292 284 279 276 272 269 266 264 265 266 267 266 266 267 268 270 271 274 280 286 290 289 292 296 303 307 306 302 300 305 308 310 314 320 324 324 319 314 308 300 286 285 289 292 294 297 300 304 307 309 311 311 311 311 311 309 306 304 303 301 300 299 297 296 295 295 294 294 293 293 292 292 292 291 290 289 288
309 312 314 316 318 318 316 311 302 292 285 281 279 278 275 272 268 265 263 262 261 261 263 264 266 267 268 268 266 267 274 282 288 296 301 299 295 295 299 301 304 307 310 311 306 300 300 300 298 298 299 300 301 302 304 306 308 310 311 311 309 308 309 309 307 304 303 302 301 300 299 298 298 297 297 297 296 296 295 294 293 291 290 289 289 290
307 309 312 314 316 316 314 310 304 297 292 290 289 287 284 279 273 268 264 261 260 261 263 264 265 266 266 265 264 266 270 274 279 284 289 288 289 291 294 296 298 300 301 300 294 286 280 286 294 300 302 303 303 304 305 306 307 308 309 308 307 306 307 307 306 305 304 303 302 301 301 301 301 300 300 300 299 299 297 296 292 290 288 288 288 289
303 306 309 312 314 314 312 309 306 302 300 299 300 299 294 288 281 274 270 266 264 263 264 264 265 266 266 266 266 267 270 272 274 277 279 280 283 287 290 292 293 295 297 296 292 287 283 286 293 299 303 304 304 303 304 305 307 308 307 306 305 305 306 307 307 306 306 304 304 304 304 304 305 304 303 302 301 300 299 297 293 289 286 286 286 287
300 304 308 311 313 313 312 311 311 309 307 305 303 303 302 297 288 281 275 270 267 264 263 263 263 264 265 266 268 269 271 273 274 275 275 276 280 285 287 287 288 290 292 290 290 289 288 289 293 298 302 304 304 304 304 305 308 308 306 305 304 305 306 307 307 307 307 306 305 305 305 306 307 306 305 304 303 300 298 295 291 288 286 284 284 284
302 305 308 310 312 312 312 313 313 311 307 300 296 295 295 292 285 278 273 269 265 263 262 261 261 261 263 265 268 271 273 274 275 274 274 274 277 280 282 282 283 284 284 284 285 286 289 291 293 295 297 299 302 303 304 306 308 307 306 305 304 305 305 306 307 307 307 305 304 304 305 305 305 304 304 304 302 299 295 292 290 288 288 286 285 283
304 305 306 308 309 310 310 311 309 306 302 295 289 286 285 283 278 272 269 267 265 264 263 263 263 263 264 265 268 271 274 276 276 275 274 273 274 276 277 277 279 279 277 278 280 284 286 289 292 293 292 291 294 298 303 307 308 307 305 305 305 305 304 305 306 306 305 304 303 302 302 301 301 301 301 301 300 297 295 293 292 292 293 292 290 286
301 302 303 305 306 306 307 307 305 301 300 296 291 287 287 284 281 278 276 274 274 274 273 271 270 269 268 268 270 272 275 278 279 279 277 276 276 275 275 276 276 275 273 272 275 278 281 284 287 290 290 289 289 292 297 303 305 305 305 305 305 304 303 304 305 305 303 301 299 299 298 298 298 299 299 300 299 298 297 297 297 297 297 295 293 291
297 298 300 302 303 304 304 305 304 302 300 296 293 292 291 289 287 286 285 284 283 283 282 281 280 278 277 276 276 277 279 281 282 282 281 280 278 276 275 274 273 273 273 272 272 272 273 274 277 281 286 289 291 292 294 297 299 301 303 305 305 303 302 303 303 302 299 297 296 295 296 297 298 298 298 299 298 297 297 297 297 297 297 296 295 293
295 297 299 300 301 301 301 302 303 303 302 298 296 294 292 290 290 289 287 289 289 288 287 287 286 285 283 282 282 282 282 282 282 282 282 281 278 276 274 273 272 272 273 272 271 269 268 268 271 275 278 283 287 290 293 293 294 297 301 303 302 301 301 301 300 298 296 295 294 294 295 297 298 297 296 296 295 294 294 294 295 295 295 294 292 292
298 298 299 300 299 298 297 298 299 301 300 298 296 295 295 297 299 300 300 299 299 299 299 298 296 294 293 293 290 288 287 286 287 287 286 283 281 278 276 274 274 274 273 272 270 269 267 268 270 273 275 278 281 285 286 287 289 292 294 294 294 295 298 298 298 296 295 294 294 294 295 296 295 294 293 293 292 291 291 291 292 292 292 290 288 286
299 300 301 301 300 298 295 294 295 295 294 294 296 299 301 303 304 304 305 305 304 304 303 303 302 301 301 299 297 295 293 293 294 293 290 286 283 280 278 277 277 276 275 273 270 269 268 268 269 270 273 275 278 281 283 284 285 286 286 286 289 293 296 295 295 294 294 293 293 293 293 292 291 291 291 291 290 290 290 289 288 288 287 286 284 282
299 300 302 303 302 301 299 299 298 297 296 296 298 301 303 304 305 305 305 305 304 304 305 305 305 303 300 298 298 299 298 298 297 295 291 287 284 281 279 278 278 278 277 274 271 269 269 269 267 267 269 271 273 275 279 282 283 284 283 282 285 289 291 292 293 293 292 291 291 290 289 289 289 290 290 290 289 289 288 287 286 285 282 281 280 279
299 301 304 306 307 308 307 307 304 303 303 305 306 306 305 305 305 305 303 301 302 304 305 305 305 303 299 297 299 302 302 302 300 296 291 288 285 282 279 278 277 276 276 273 270 269 271 270 268 267 268 269 270 272 275 278 280 281 281 281 280 279 279 283 288 291 291 289 288 287 287 287 288 289 289 289 288 288 287 286 284 282 280 278 277 277
299 302 307 309 309 309 309 307 305 305 305 305 306 306 305 306 306 304 301 299 300 302 302 304 303 300 296 297 300 303 304 303 301 298 294 291 288 285 282 280 279 278 276 273 271 269 269 269 270 272 273 271 269 269 271 274 277 279 280 280 278 276 275 279 283 285 286 286 286 286 286 287 289 289 288 287 287 286 284 283 282 281 280 278 277 275
300 302 305 305 305 304 303 303 303 304 304 304 304 305 306 307 308 305 302 299 299 299 301 302 299 293 291 295 299 302 303 302 301 300 298 296 294 292 289 287 285 283 280 277 274 272 269 268 269 272 275 274 272 270 269 270 273 276 278 279 279 278 279 279 280 280 281 282 283 285 286 287 287 286 284 285 286 286 284 282 279 278 279 278 277 275
296 298 299 299 299 298 299 300 302 303 302 302 303 304 306 307 306 304 302 301 300 299 299 298 294 288 287 291 294 296 297 298 299 299 299 299 298 296 294 292 289 286 283 280 277 275 272 271 270 270 270 271 272 273 271 270 270 271 274 277 278 278 279 279 279 279 279 279 280 282 285 286 285 283 282 284 285 285 284 283 280 279 278 277 277 275
292 293 293 294 295 297 298 299 301 302 300 300 301 303 304 305 304 302 300 300 298 296 294 292 289 286 286 286 287 288 290 291 294 295 296 297 297 296 295 294 292 289 287 284 281 278 276 274 272 269 265 263 266 269 272 271 270 270 271 274 275 276 277 278 279 280 279 279 279 281 283 282 280 280 282 284 285 286 285 284 282 280 278 277 276 275
286 287 288 290 292 293 295 297 298 298 297 297 298 299 301 303 302 299 297 297 295 292 288 286 285 284 284 284 285 286 287 288 289 291 293 294 295 295 295 294 294 292 290 288 285 282 280 278 274 269 264 258 258 262 267 269 270 270 270 271 271 273 274 277 279 280 280 280 280 281 281 279 277 276 277 279 282 284 285 284 284 283 280 278 277 276
278 280 283 285 288 289 291 293 294 294 295 295 296 296 298 300 301 300 298 296 292 288 283 281 280 280 281 283 285 285 286 287 288 289 290 292 294 295 295 296 296 296 294 293 290 288 285 283 280 275 268 260 256 256 260 264 268 270 270 269 269 270 272 275 278 280 280 280 281 282 281 279 278 276 274 274 277 281 284 284 284 284 282 281 280 279
277 279 281 283 285 287 288 290 291 292 293 293 294 295 296 297 298 298 297 293 288 284 281 279 278 277 278 281 283 284 284 284 285 286 288 291 293 294 294 295 296 296 295 296 296 295 295 293 291 288 282 270 260 255 256 259 264 268 270 270 270 271 271 274 277 280 281 282 282 283 282 281 279 277 274 274 277 281 284 285 285 285 284 283 282 280